Regional Weather Roundup
Issued by NWS

Home | Current Version | Previous Version | Text Only | Print | Product List | Glossary Off
Versions: 1 2 3 4 5 6 7 8 9 10 11 12 13 14 15 16 17 18 19 20 21 22 23 24 25 26 27 28 29 30 31 32 33 34 35 36 37 38 39 40 41 42 43 44 45 46 47 48 49 50

000
ASUS45 KCYS 240310
RWRWY

WYOMING REGIONAL WEATHER ROUNDUP
NATIONAL WEATHER SERVICE CHEYENNE WY
900 PM MDT SUN APR 23 2017

NOTE:  "FAIR" INDICATES FEW OR NO CLOUDS BELOW 12,000 FEET
WITH NO SIGNIFICANT WEATHER AND/OR OBSTRUCTIONS TO VISIBILITY.

WYZ001-240400-
YELLOWSTONE NATIONAL PARK

CITY           SKY/WX    TMP DP  RH WIND       PRES   REMARKS
LK YELLOWSTONE   N/A     32  31  96 W10       29.85R WCI  24
W YELLOWSTONE  NOT AVBL

$$
WYZ002>013-054>058-071-098>099-240400-
NORTHERN WYOMING

CITY           SKY/WX    TMP DP  RH WIND       PRES   REMARKS
JACKSON        FAIR      45  27  49 SW12      29.81R
CODY           FAIR      49  33  54 N8        29.72R
GREYBULL       CLOUDY    57  36  45 NW23      29.63R
WORLAND        FAIR      58  42  55 W5        29.63R
SHERIDAN       CLOUDY    54  42  64 NW9       29.62R
BUFFALO        FAIR      57  34  41 SW9       29.64R
GILLETTE       CLOUDY    62  34  35 SW16      29.61R
HULETT         MOCLDY    52  39  62 E12G17    29.64R
NEWCASTLE      FAIR      64  28  25 SE10G23   29.61R

$$
WYZ014>020-022>026-101>103-240400-
CENTRAL WYOMING

CITY           SKY/WX    TMP DP  RH WIND       PRES   REMARKS
BIG PINEY      FAIR      38  26  62 N7        29.86R WCI  33
PINEDALE       FAIR      37  30  75 CALM      29.85S
DUBOIS         FAIR      39  23  52 W12       29.80R WCI  32
LANDER         FAIR      50  32  50 CALM      29.71R
RIVERTON       FAIR      50  33  52 NW23G30   29.71R
CASPER         CLOUDY    55  37  50 CALM      29.68R
DOUGLAS        FAIR      57  37  47 NW15      29.65R

$$
WYZ021-027>030-104>119-240400-
SOUTHERN WYOMING

CITY           SKY/WX    TMP DP  RH WIND       PRES   REMARKS
EVANSTON       CLOUDY    43  33  68 S6        29.90R
KEMMERER         N/A     37  30  75 W8        29.88R WCI  31
FORT BRIDGER   LGT RAIN  42  35  75 CALM      29.94R
ROCK SPRINGS   LGT RAIN  44  38  79 CALM      29.87R
DIXON            N/A     55  28  34 N7        29.79R
RAWLINS        FAIR      53  29  39 W12       29.78R
SARATOGA       FAIR      50  30  46 W6        29.79R
LARAMIE        FAIR      47  29  49 S10       29.77S
CHEYENNE       FAIR      52  36  54 SW7       29.74F
TORRINGTON     FAIR      62  31  31 SE9       29.62F
PINE BLUFFS    FAIR      48  37  66 N5        29.72R

$$



USA.gov is the U.S. government's official web portal to all federal, state and local government web resources and services.